Humidity-temperature Sensor

Selected Measurement Type: Relative Humidity

 
Relative Humidity [%]     6 entries per hour
Showing data from 12/30/2016 (00:00:00 Z) to 12/23/2016 (00:01:00 Z)
Previous Next [ Day | 3-Days | 7-Days ]
First Last
Prev [ Day | 3-Days | 7-Days ] Next
First Last

Start Time:     :
End Time:     :     
Time (in GMT) :00 :50 :40 :30 :20 :10
Previous Next [ Day | 3-Days | 7-Days ]
First Last
Prev [ Day | 3-Days | 7-Days ] Next
First Last


123 => good data
MM => data is determined as missing
-- => data not received/configured
Back to Top Back to Top
12/30/2016 00:00 to 23:10 70.76 71.30 70.79 71.95 70.87 70.58
12/29/2016 23:00 to 22:10 70.32 69.49 69.41 69.13 67.91 68.26
12/29/2016 22:00 to 21:10 68.96 68.75 68.90 68.33 71.49 70.21
12/29/2016 21:00 to 20:10 69.75 70.60 68.96 69.22 69.56 68.96
12/29/2016 20:00 to 19:10 69.88 71.15 70.28 69.54 69.81 70.26
12/29/2016 19:00 to 18:10 71.38 70.45 69.43 72.52 72.01 71.51
12/29/2016 18:00 to 17:10 72.01 70.70 69.88 70.40 72.59 71.02
12/29/2016 17:00 to 16:10 70.72 70.96 71.10 71.66 71.48 71.27
12/29/2016 16:00 to 15:10 70.85 71.08 71.89 72.59 71.49 72.91
12/29/2016 15:00 to 14:10 72.55 72.12 73.41 73.16 73.52 74.96
12/29/2016 14:00 to 13:10 -- -- -- -- -- --
12/29/2016 13:00 to 12:10 74.71 73.69 74.47 74.03 73.77 71.63
12/29/2016 12:00 to 11:10 73.26 73.98 73.98 74.60 74.13 74.51
12/29/2016 11:00 to 10:10 74.66 75.11 77.18 76.61 75.98 77.33
12/29/2016 10:00 to 9:10 76.42 78.45 78.73 77.86 79.00 79.56
12/29/2016 09:00 to 8:10 77.74 78.20 79.11 79.71 79.89 80.70
12/29/2016 08:00 to 7:10 81.55 80.04 79.58 80.40 81.65 81.27
12/29/2016 07:00 to 6:10 80.28 80.07 80.42 79.87 79.18 78.35
12/29/2016 06:00 to 5:10 77.80 77.31 77.06 77.18 77.59 77.61
12/29/2016 05:00 to 4:10 77.52 77.82 77.52 78.71 77.76 77.84
12/29/2016 04:00 to 3:10 77.78 77.12 76.48 75.93 75.32 75.11
12/29/2016 03:00 to 2:10 73.82 74.90 76.21 75.53 76.51 74.56
12/29/2016 02:00 to 1:10 73.73 73.56 72.40 72.20 74.01 73.12
12/29/2016 01:00 to 0:10 72.54 72.21 71.29 70.40 69.22 69.66
12/29/2016 00:00 to 23:10 67.74 67.91 69.52 67.27 67.12 67.55
12/28/2016 23:00 to 22:10 69.13 67.61 68.22 65.11 66.21 67.50
12/28/2016 22:00 to 21:10 69.51 68.41 68.84 70.53 71.17 71.30
12/28/2016 21:00 to 20:10 71.65 72.86 72.97 74.35 73.79 72.65
12/28/2016 20:00 to 19:10 72.50 73.63 72.69 73.58 71.82 73.09
12/28/2016 19:00 to 18:10 75.19 75.30 74.28 73.65 74.16 73.60
12/28/2016 18:00 to 17:10 73.07 72.99 72.29 72.59 73.54 73.86
12/28/2016 17:00 to 16:10 72.71 73.75 71.87 72.23 72.08 72.25
12/28/2016 16:00 to 15:10 72.48 73.60 74.39 72.80 73.03 73.27
12/28/2016 15:00 to 14:10 73.82 73.56 73.81 73.03 72.97 73.18
12/28/2016 14:00 to 13:10 72.95 73.18 72.40 73.26 72.44 72.06
12/28/2016 13:00 to 12:10 71.23 72.71 74.62 75.28 75.62 72.86
12/28/2016 12:00 to 11:10 73.99 73.18 74.43 75.15 73.77 73.69
12/28/2016 11:00 to 10:10 73.60 75.23 74.43 75.11 75.38 74.62
12/28/2016 10:00 to 9:10 75.45 76.21 76.84 74.54 73.31 73.75
12/28/2016 09:00 to 8:10 73.98 74.13 74.11 75.32 75.02 73.33
12/28/2016 08:00 to 7:10 75.06 74.83 74.64 73.50 74.47 75.66
12/28/2016 07:00 to 6:10 74.94 73.79 74.01 73.75 73.67 73.39
12/28/2016 06:00 to 5:10 74.26 73.56 73.26 73.50 73.94 73.69
12/28/2016 05:00 to 4:10 75.11 74.01 74.16 73.71 74.85 75.91
12/28/2016 04:00 to 3:10 74.49 74.49 74.83 73.81 73.10 72.65
12/28/2016 03:00 to 2:10 74.58 74.26 73.69 73.41 72.65 72.29
12/28/2016 02:00 to 1:10 72.73 73.18 72.25 73.14 71.65 72.61
12/28/2016 01:00 to 0:10 74.37 74.15 73.67 72.74 72.01 74.35
12/28/2016 00:00 to 23:10 73.92 72.65 72.27 72.84 73.50 73.77
12/27/2016 23:00 to 22:10 74.88 75.30 75.42 75.11 74.05 74.66
12/27/2016 22:00 to 21:10 74.09 73.81 74.03 73.73 74.34 73.73
12/27/2016 21:00 to 20:10 73.03 75.64 74.79 73.75 75.40 75.06
12/27/2016 20:00 to 19:10 75.26 75.55 76.44 76.06 75.28 75.62
12/27/2016 19:00 to 18:10 76.04 75.62 74.81 75.74 75.19 74.52
12/27/2016 18:00 to 17:10 74.18 74.03 74.83 73.90 73.31 76.25
12/27/2016 17:00 to 16:10 76.34 76.76 75.98 73.92 75.21 76.59
12/27/2016 16:00 to 15:10 75.91 77.10 77.63 76.84 77.54 77.74
12/27/2016 15:00 to 14:10 -- -- -- -- -- --
12/27/2016 14:00 to 13:10 77.29 77.04 76.42 76.34 77.08 76.53
12/27/2016 13:00 to 12:10 76.34 76.32 76.67 77.21 78.05 77.42
12/27/2016 12:00 to 11:10 77.25 76.99 76.67 78.43 78.39 77.90
12/27/2016 11:00 to 10:10 78.10 77.69 77.18 77.46 77.16 76.80
12/27/2016 10:00 to 9:10 77.90 76.59 76.93 76.87 76.00 76.31
12/27/2016 09:00 to 8:10 75.70 75.51 75.68 76.02 77.12 78.73
12/27/2016 08:00 to 7:10 76.70 76.27 76.19 77.65 77.80 77.61
12/27/2016 07:00 to 6:10 78.09 78.48 77.95 76.25 75.70 75.42
12/27/2016 06:00 to 5:10 74.90 74.94 74.30 74.66 75.85 75.43
12/27/2016 05:00 to 4:10 75.07 76.02 75.68 75.64 74.24 74.49
12/27/2016 04:00 to 3:10 73.48 72.50 72.95 72.57 72.93 73.41
12/27/2016 03:00 to 2:10 72.44 72.42 71.89 70.47 71.42 70.81
12/27/2016 02:00 to 1:10 72.38 74.30 74.64 73.46 72.82 72.44
12/27/2016 01:00 to 0:10 72.18 72.59 71.84 71.87 71.40 70.93
12/27/2016 00:00 to 23:10 72.78 71.00 71.72 70.76 71.66 71.34
12/26/2016 23:00 to 22:10 72.80 73.18 73.26 72.50 73.22 72.37
12/26/2016 22:00 to 21:10 72.99 73.69 74.79 73.43 72.50 73.69
12/26/2016 21:00 to 20:10 73.86 73.27 72.88 73.22 73.18 73.58
12/26/2016 20:00 to 19:10 72.48 72.10 72.33 72.78 72.99 74.13
12/26/2016 19:00 to 18:10 72.71 73.31 73.82 73.79 72.16 73.26
12/26/2016 18:00 to 17:10 73.09 74.58 74.52 73.96 74.51 73.24
12/26/2016 17:00 to 16:10 73.18 72.40 74.64 74.52 73.29 74.32
12/26/2016 16:00 to 15:10 74.73 74.87 73.48 75.55 75.81 74.56
12/26/2016 15:00 to 14:10 75.42 76.10 74.77 73.67 73.99 73.88
12/26/2016 14:00 to 13:10 74.41 74.68 73.82 73.75 73.98 74.83
12/26/2016 13:00 to 12:10 74.03 74.98 74.88 76.00 74.60 74.87
12/26/2016 12:00 to 11:10 76.13 75.13 75.19 76.61 77.01 76.93
12/26/2016 11:00 to 10:10 76.19 76.65 75.62 75.98 76.53 76.61
12/26/2016 10:00 to 9:10 75.57 76.23 76.59 75.59 74.77 75.79
12/26/2016 09:00 to 8:10 74.90 75.72 74.30 74.77 74.09 73.07
12/26/2016 08:00 to 7:10 73.50 73.24 73.98 73.48 73.56 73.01
12/26/2016 07:00 to 6:10 73.16 74.47 73.35 72.71 72.76 72.06
12/26/2016 06:00 to 5:10 71.32 72.10 71.61 71.59 73.65 73.18
12/26/2016 05:00 to 4:10 75.15 75.30 74.62 74.22 73.14 72.40
12/26/2016 04:00 to 3:10 72.46 72.80 72.46 71.80 71.70 70.60
12/26/2016 03:00 to 2:10 68.50 70.55 71.63 70.72 69.20 68.01
12/26/2016 02:00 to 1:10 68.07 68.01 67.76 68.41 67.06 66.02
12/26/2016 01:00 to 0:10 67.16 66.34 67.31 67.12 68.14 67.82
12/26/2016 00:00 to 23:10 69.85 69.96 71.44 71.29 70.79 68.92
12/25/2016 23:00 to 22:10 71.85 71.59 70.58 70.85 71.66 71.48
12/25/2016 22:00 to 21:10 72.46 72.04 72.38 72.52 73.46 71.84
12/25/2016 21:00 to 20:10 71.82 70.21 68.88 67.35 67.61 66.27
12/25/2016 20:00 to 19:10 65.94 67.10 67.84 70.57 72.18 70.79
12/25/2016 19:00 to 18:10 71.17 70.94 69.51 70.36 72.16 71.61
12/25/2016 18:00 to 17:10 72.57 72.37 73.48 72.63 72.10 73.54
12/25/2016 17:00 to 16:10 72.78 71.78 72.50 73.14 74.47 74.71
12/25/2016 16:00 to 15:10 74.45 75.24 75.45 75.62 75.85 75.19
12/25/2016 15:00 to 14:10 74.75 74.90 74.87 74.94 74.87 75.23
12/25/2016 14:00 to 13:10 76.85 77.50 76.84 76.57 75.49 75.91
12/25/2016 13:00 to 12:10 75.19 75.17 74.79 76.84 76.97 76.84
12/25/2016 12:00 to 11:10 75.95 76.10 75.55 74.45 75.24 76.00
12/25/2016 11:00 to 10:10 76.74 75.93 75.85 74.26 74.64 73.73
12/25/2016 10:00 to 9:10 74.22 74.92 74.87 74.98 74.51 74.05
12/25/2016 09:00 to 8:10 73.69 74.03 73.73 73.94 73.82 73.27
12/25/2016 08:00 to 7:10 72.80 73.39 73.84 73.82 73.33 73.90
12/25/2016 07:00 to 6:10 73.69 73.86 74.05 74.70 75.40 72.95
12/25/2016 06:00 to 5:10 73.16 72.40 72.06 73.18 74.47 74.22
12/25/2016 05:00 to 4:10 73.18 72.55 72.95 74.35 74.41 74.41
12/25/2016 04:00 to 3:10 75.38 76.10 75.43 74.77 74.83 76.34
12/25/2016 03:00 to 2:10 75.47 75.24 75.11 75.70 74.28 75.00
12/25/2016 02:00 to 1:10 74.22 75.28 74.34 75.15 75.36 75.68
12/25/2016 01:00 to 0:10 74.49 74.39 74.11 75.02 75.47 73.90
12/25/2016 00:00 to 23:10 73.41 74.94 74.73 74.41 74.18 74.62
12/24/2016 23:00 to 22:10 75.30 74.73 75.66 77.10 77.06 76.17
12/24/2016 22:00 to 21:10 76.32 75.47 75.85 76.61 75.77 74.70
12/24/2016 21:00 to 20:10 75.47 75.09 76.55 76.02 74.96 73.43
12/24/2016 20:00 to 19:10 73.94 74.68 75.34 77.29 76.84 77.95
12/24/2016 19:00 to 18:10 77.12 76.53 76.04 75.98 75.00 77.27
12/24/2016 18:00 to 17:10 77.44 76.34 76.74 76.49 76.80 75.77
12/24/2016 17:00 to 16:10 75.83 76.06 75.04 75.32 76.23 76.25
12/24/2016 16:00 to 15:10 76.82 76.29 76.38 76.70 76.12 77.52
12/24/2016 15:00 to 14:10 77.29 77.37 76.57 77.92 78.01 76.99
12/24/2016 14:00 to 13:10 76.06 76.53 75.76 78.20 78.18 79.35
12/24/2016 13:00 to 12:10 78.92 79.00 78.48 77.21 77.20 77.44
12/24/2016 12:00 to 11:10 77.29 78.37 76.02 76.78 78.26 77.69
12/24/2016 11:00 to 10:10 77.54 76.34 77.80 75.55 76.23 77.44
12/24/2016 10:00 to 9:10 75.93 77.23 76.38 75.89 76.34 76.59
12/24/2016 09:00 to 8:10 77.33 77.46 77.80 76.27 75.66 75.38
12/24/2016 08:00 to 7:10 74.79 74.05 76.87 74.92 76.38 75.89
12/24/2016 07:00 to 6:10 74.77 74.81 75.72 75.13 75.24 77.56
12/24/2016 06:00 to 5:10 78.12 76.76 78.29 78.43 79.24 78.52
12/24/2016 05:00 to 4:10 78.86 78.67 76.74 76.55 81.48 80.98
12/24/2016 04:00 to 3:10 80.40 78.98 79.22 80.00 78.05 78.31
12/24/2016 03:00 to 2:10 78.46 77.46 76.63 76.55 76.53 75.96
12/24/2016 02:00 to 1:10 76.02 75.45 76.42 78.01 77.12 75.70
12/24/2016 01:00 to 0:10 75.13 77.40 75.83 75.30 76.15 75.89
12/24/2016 00:00 to 23:10 74.28 73.09 73.99 73.24 73.67 73.54
12/23/2016 23:00 to 22:10 72.16 76.48 75.59 76.65 75.70 75.40
12/23/2016 22:00 to 21:10 75.45 78.35 77.14 78.48 74.52 77.88
12/23/2016 21:00 to 20:10 79.28 79.79 80.72 79.68 79.20 77.95
12/23/2016 20:00 to 19:10 78.31 81.27 77.33 74.62 74.24 72.78
12/23/2016 19:00 to 18:10 72.65 74.35 75.98 75.74 76.06 76.61
12/23/2016 18:00 to 17:10 76.42 76.63 77.10 81.14 81.08 77.06
12/23/2016 17:00 to 16:10 75.06 72.97 74.18 74.37 75.55 76.00
12/23/2016 16:00 to 15:10 75.98 74.24 75.36 75.89 75.15 73.67
12/23/2016 15:00 to 14:10 73.39 75.43 77.59 77.01 76.19 75.91
12/23/2016 14:00 to 13:10 75.19 75.51 77.20 76.65 76.13 74.73
12/23/2016 13:00 to 12:10 78.10 78.01 77.12 76.55 76.61 77.52
12/23/2016 12:00 to 11:10 77.03 76.27 75.89 74.66 76.23 76.84
12/23/2016 11:00 to 10:10 74.32 75.59 76.59 75.91 75.59 74.66
12/23/2016 10:00 to 9:10 74.71 74.01 71.91 75.40 72.82 69.39
12/23/2016 09:00 to 8:10 71.19 72.55 71.36 71.30 74.85 73.24
12/23/2016 08:00 to 7:10 73.73 74.26 73.27 74.22 74.05 73.27
12/23/2016 07:00 to 6:10 74.34 75.30 74.96 73.73 73.99 73.94
12/23/2016 06:00 to 5:10 73.50 72.06 72.33 71.95 72.73 74.18
12/23/2016 05:00 to 4:10 75.30 75.13 74.49 73.88 74.52 73.52
12/23/2016 04:00 to 3:10 73.63 73.18 72.71 72.10 72.20 72.95
12/23/2016 03:00 to 2:10 71.25 71.17 71.19 69.20 69.33 69.22
12/23/2016 02:00 to 1:10 69.32 68.73 69.54 68.94 68.44 68.52
12/23/2016 01:00 to 0:10 69.41 68.99 69.20 68.62 68.99 69.01